(111) Ate
ephemeris date magn radius delta ra dec elong phase
Today13 May 202513.92.794 AU3.124 AU23h21m-02°04'61.9°18.6°
Opposition22 Sep 202511.82.680 AU1.680 AU23h48m+05°39'173.6°2.4°
(111) Ate - 2025-05-13
astro.vanbuitenen.nl


 
-1 year
-1 month
-1 day
Now
+1 day
+1 month
+1 year

The interactive orbit chart above shows the body's path through the solar system and its position at the given date. Green and blue lines are shown perpendicular to the ecliptic plane: Green if the path is above the ecliptic plane, blue if it is below. (Left-click and drag to rotate the view; Right-click and drag to move the view; Use scroll wheel to zoom in our out.)

The orbital elements of Ate are:

            e (Eccentricity)                : 0.1033802
            a (Semimajor axis)              : 2.5930966
            i (Inclination)                 : 4.93233
            Ω (Longitude of ascending node) : 305.66187
            ω (Argument of perihelion)      : 168.36126
            M (Mean anomaly)                : 223.53642
            Epoch                           : 2025 May 05

            L (Longitude of perihelion)     : 294.06506
            B (Latitude of perihelion)      : 0.99387
            P (Orbital period in years)     : 4.18            
        

The light curve chart below shows the estimated development of the minor planet's magnitude.


The all-sky chart below shows the path of the minor planet over the same period as the light curve. The current position is marked yellow.





The following chart shows the path of the minor planet in the next few days. The field of view is optimized for (~10x50) binoculars and finderscopes. A more printer-friendly version of the same chart can be found below.




Ephemerides:
Date       Time       RA (2000)    DEC (2000)    delta   radius  elong  phase   PA    magn
2025-05-13 00:00 UT   23 21 09.7   -02 04 40     3.124    2.794   61.9   18.6   248   13.9 
2025-05-13 04:30 UT   23 21 22.8   -02 03 00     3.121    2.794   62.0   18.6   248   13.9 
2025-05-14 00:00 UT   23 22 19.5   -01 55 50     3.111    2.793   62.5   18.7   248   13.9 
2025-05-15 00:00 UT   23 23 28.8   -01 47 03     3.099    2.793   63.2   18.8   248   13.9 
2025-05-16 00:00 UT   23 24 37.6   -01 38 17     3.086    2.792   63.8   19.0   248   13.9 
2025-05-17 00:00 UT   23 25 46.0   -01 29 32     3.074    2.791   64.5   19.1   248   13.9 
2025-05-18 00:00 UT   23 26 53.8   -01 20 50     3.061    2.790   65.1   19.2   248   13.9 
2025-05-19 00:00 UT   23 28 01.3   -01 12 09     3.048    2.790   65.8   19.3   248   13.9 
2025-05-20 00:00 UT   23 29 08.2   -01 03 31     3.035    2.789   66.4   19.4   248   13.8 
2025-05-21 00:00 UT   23 30 14.6   +00 54 54     3.022    2.788   67.1   19.5   248   13.8 
2025-05-22 00:00 UT   23 31 20.5   +00 46 19     3.009    2.788   67.7   19.6   248   13.8 
2025-05-23 00:00 UT   23 32 26.0   +00 37 47     2.996    2.787   68.4   19.7   248   13.8 
2025-05-24 00:00 UT   23 33 30.9   +00 29 17     2.983    2.786   69.0   19.8   248   13.8 
2025-05-25 00:00 UT   23 34 35.2   +00 20 49     2.970    2.786   69.7   19.9   248   13.8 
2025-05-26 00:00 UT   23 35 39.0   +00 12 23     2.957    2.785   70.3   20.0   247   13.8 
2025-05-27 00:00 UT   23 36 42.3   +00 03 60     2.944    2.784   71.0   20.1   247   13.8 
2025-05-28 00:00 UT   23 37 45.0   +00 04 21     2.930    2.783   71.7   20.2   247   13.8 
2025-05-29 00:00 UT   23 38 47.2   +00 12 39     2.917    2.783   72.3   20.3   247   13.8 
2025-05-30 00:00 UT   23 39 48.7   +00 20 54     2.904    2.782   73.0   20.4   247   13.8 
2025-05-31 00:00 UT   23 40 49.7   +00 29 07     2.890    2.781   73.7   20.5   247   13.8 
2025-06-01 00:00 UT   23 41 50.1   +00 37 17     2.877    2.780   74.4   20.6   247   13.8 
2025-06-02 00:00 UT   23 42 49.9   +00 45 25     2.863    2.780   75.0   20.6   247   13.8 
2025-06-03 00:00 UT   23 43 49.1   +00 53 29     2.850    2.779   75.7   20.7   247   13.7 
2025-06-04 00:00 UT   23 44 47.7   +01 01 31     2.836    2.778   76.4   20.8   247   13.7 
2025-06-05 00:00 UT   23 45 45.6   +01 09 29     2.822    2.777   77.1   20.9   247   13.7 
2025-06-06 00:00 UT   23 46 42.9   +01 17 25     2.809    2.777   77.8   20.9   247   13.7 
2025-06-07 00:00 UT   23 47 39.6   +01 25 17     2.795    2.776   78.4   21.0   247   13.7 
2025-06-08 00:00 UT   23 48 35.6   +01 33 07     2.781    2.775   79.1   21.0   247   13.7 
2025-06-09 00:00 UT   23 49 31.0   +01 40 53     2.768    2.774   79.8   21.1   247   13.7 
2025-06-10 00:00 UT   23 50 25.7   +01 48 36     2.754    2.774   80.5   21.2   247   13.7 


    Terminology:
            
    delta:  distance between minor planet and earth in AU
    radius: distance between minor planet and sun in AU
    magn:   magnitude (brightness) estimate    
    ra:     right ascension in hours (24h = 360deg)
    dec:    declination in degrees
    elong:  elongation in degrees (angle sun-earth-minor planet)    
    phase:  phase angle in degrees (angle sun-minor planet-earth)        
    AU:     Astronomical Unit (mean distance between earth and sun: 149597870.7 km
    

Orbital elements provided by the MPC (Minor Planet Center).
Calculations by a modified version of AAPlus, a C# implementation of the AA+ project by PJ Naughter from the algorithms presented in the book "Astronomical Algorithms" by Jean Meeus.
NGC2000 dso catalog and star labels from VizieR as provided by the Strasbourg astronomical Data Center.
Tycho2 catalog from the ESO archive.